Location: Jackson Park
(37.2862°N, 79.9123°W)
Time: 20:55:24
(UTC+00:00)

Transit 4A - Pass Details

Date: 19 May 2026
Orbit: 860 x 980 km, 66.8° (Epoch: 9 June)

Event Time Altitude Azimuth Distance (km) Brightness Sun altitude
Rises 12:38:15 0° 223° (SW) 3,531 10.5 27.9°
Reaches altitude 10° 12:40:49 10° 228° (SW) 2,611 9.9 28.4°
Maximum altitude 12:46:41 49° 303° (WNW) 1,196 8.5 29.6°
Drops below altitude 10° 12:52:47 10° 18° (NNE) 2,701 10.7 30.8°
Sets 12:55:29 0° 23° (NNE) 3,663 11.3 31.3°
